Hourly Data Report for November 09, 2019

TORONTO CITY
ONTARIO
Current Station Operator: ECCC - MSC

43°40'00.000" N
79°24'00.000" W
112.50 m
6158355
71508
XTO

Download Data

Hourly Data (November 2019)
Hourly Data Report for November 9, 2019
TIME
LST
Temp Definition
°C
Dew Point Definition
°C
Rel Hum Definition
%
Precip. Amount Definition
mm

Wind Dir Definition
10's deg

Wind Spd Definition
km/h
Visibility Definition
km
Stn Press Definition
kPa
Hmdx Definition


Wind Chill Definition


Weather Definition


00:00 -1.9 -7.0 68 0.0       101.11     LegendNANA
01:00 -2.5 -7.1 71 0.0       101.05     LegendNANA
02:00 -1.5 -6.9 66 0.0       101.00     LegendNANA
03:00 -0.8 -7.1 62 0.0       100.94     LegendNANA
04:00 -0.7 -6.5 65 0.0       100.87     LegendNANA
05:00 -0.3 -5.5 68 0.0       100.82     LegendNANA
06:00 0.1 -4.8 70 0.0       100.75     LegendNANA
07:00 0.8 -6.8 57 0.0       100.71     LegendNANA
08:00 1.3 -8.5 48 0.0       100.69     LegendNANA
09:00 1.3 -7.9 50 0.0       100.62     LegendNANA
10:00 1.6 -6.9 53 0.0       100.52     LegendNANA
11:00 2.0 -5.1 60 0.0       100.48     LegendNANA
12:00 2.4 -4.5 61 0.0       100.34     LegendNANA
13:00 3.0 -3.5 62 0.0       100.20     LegendNANA
14:00 3.6 -4.3 56 0.0       100.15     LegendNANA
15:00 3.6 -4.6 55 0.0       100.11     LegendNANA
16:00 3.7 -4.1 57 0.0       100.08     LegendNANA
17:00 3.8 -3.8 58 0.0       100.08     LegendNANA
18:00 4.0 -3.0 60 0.0       100.08     LegendNANA
19:00 4.2 -3.0 59 0.0       100.06     LegendNANA
20:00 4.3 -2.4 62 0.0       100.05     LegendNANA
21:00 4.3 -3.1 59 0.0       100.04     LegendNANA
22:00 4.1 -3.2 59 0.0       100.04     LegendNANA
23:00 3.9 -3.2 60 0.0       99.98     LegendNANA

Notes on Data Quality.

Legend

  • E = Estimated
  • M = Missing
  • NA = Not Available*
  • [empty] = Indicates an unobserved value
Date modified: